Terminal Aerodrome Forecast
Issued by NWS Knoxville/Tri Cities, TN

Home | Current Version | Previous Version | Text Only | Print | Product List | Glossary On
Versions: 1 2 3 4 5 6 7 8 9 10 11 12 13 14 15 16 17 18 19 20 21 22 23 24
000
FTUS44 KMRX 060520
TAFCHA
TAF
KCHA 060520Z 0606/0706 VRB02KT P6SM SCT080
      TEMPO 0606/0609 BKN080
     FM061700 11005KT P6SM FEW060
     FM070000 VRB02KT P6SM SCT080=

USA.gov is the U.S. government's official web portal to all federal, state and local government web resources and services.